Weather reports worldwide

Advertisment
Nancy/Ochey, France (7181): temperature & dewpoint: 13.07.2018 13:00:00 - 19.07.2018 13:00:00 (CEST)Nancy/Ochey, France (7181): temperature 5cm: 13.07.2018 13:00:00 - 19.07.2018 13:00:00 (CEST)Nancy/Ochey, France (7181): temperature -20cm & temperature -100cm: 13.07.2018 13:00:00 - 19.07.2018 13:00:00 (CEST)Nancy/Ochey, France (7181): wind speed & gusts: 13.07.2018 13:00:00 - 19.07.2018 13:00:00 (CEST)Nancy/Ochey, France (7181): wind direction: 13.07.2018 13:00:00 - 19.07.2018 13:00:00 (CEST)Nancy/Ochey, France (7181): reduced air pressure: 13.07.2018 13:00:00 - 19.07.2018 13:00:00 (CEST)Nancy/Ochey, France (7181): visibility: 13.07.2018 13:00:00 - 19.07.2018 13:00:00 (CEST)Nancy/Ochey, France (7181): precipitation: 13.07.2018 13:00:00 - 19.07.2018 13:00:00 (CEST)
Date & Time tt [°C] td [°C] tt 5cm [°C] tt -20cm [°C] tt -100cm [°C] ff [km/h] ff [kn] fx [km/h] fx [kn] dd ppp [hPa] vv [km] rr [mm]
19.07.2018 13:00:00 28,1 9,9 29,8 20,9 17,8 14 8 26 14 NNE 1015,7 49 0,0
19.07.2018 12:00:00 27,0 9,8 36,6 20,9 17,8 9 5 27 15 N 1016,1 50 0,0
19.07.2018 11:00:00 26,5 11,4 35,2 20,9 17,8 8 4 16 9 N 1016,3 38 0,0
19.07.2018 10:00:00 23,9 12,2 29,3 21,0 17,8 6 4 15 8 NNE 1016,7 33 0,0
19.07.2018 09:00:00 20,3 11,5 22,7 21,0 17,8 6 4 12 6 N 1017,2 24 0,0
19.07.2018 08:00:00 17,1 11,4 14,7 21,1 17,8 6 4 10 5 N 1017,7 28 0,0
19.07.2018 07:00:00 15,0 11,4 8,6 21,2 17,8 4 2 10 5 W 1017,8 31 0,0
19.07.2018 06:00:00 13,9 9,9 8,7 21,2 17,8 8 4 11 6 N 1017,7 30 0,0
19.07.2018 05:00:00 14,8 10,4 8,8 21,3 17,8 8 4 10 5 N 1017,6 30 0,0
19.07.2018 04:00:00 16,0 10,1 9,4 21,3 17,8 4 2 10 6 N 1017,3 39 0,0
19.07.2018 03:00:00 16,7 9,9 9,6 21,3 17,8 6 3 9 5 N 1017,5 44 0,0
19.07.2018 02:00:00 17,2 10,3 9,7 21,3 17,8 3 1 6 3 NNE 1017,7 42 0,0
19.07.2018 01:00:00 17,7 10,6 10,4 21,3 17,8 4 2 9 5 NNW 1017,3 42 0,0
19.07.2018 00:00:00 19,8 10,2 13,9 21,3 17,8 6 4 15 8 NNE 1016,8 40 0,0
18.07.2018 23:00:00 20,4 10,8 14,8 21,3 17,8 10 5 16 9 ENE 1016,1 46 0,0
18.07.2018 22:00:00 22,0 11,1 18,1 21,2 17,8 9 5 13 7 NE 1015,7 40 0,0
18.07.2018 21:00:00 24,5 11,4 23,1 21,1 17,8 9 5 14 8 NE 1015,1 35 0,0
18.07.2018 20:00:00 26,7 10,8 27,7 21,0 17,7 12 7 23 13 NE 1014,6 41 0,0
18.07.2018 19:00:00 27,5 11,1 29,7 21,0 17,7 11 6 19 10 NE 1014,4 39 0,0
18.07.2018 18:00:00 28,5 11,5 33,6 20,9 17,7 18 10 27 15 NNE 1014,6 34 0,0
18.07.2018 17:00:00 28,1 11,6 33,2 20,8 17,7 13 7 28 15 NNE 1015,1 29 0,0
18.07.2018 16:00:00 27,6 11,6 31,5 20,8 17,7 10 6 25 14 ENE 1015,5 34 0,0
18.07.2018 15:00:00 27,2 11,6 33,2 20,8 17,7 10 5 24 13 NE 1015,7 35 0,0
18.07.2018 14:00:00 27,1 12,7 27,5 20,8 17,7 13 7 23 12 N 1016,1 36 0,0
18.07.2018 13:00:00 25,4 12,3 30,9 20,8 17,7 7 4 21 12 NNE 1016,8 28 0,0
18.07.2018 12:00:00 26,6 13,3 29,4 20,8 17,7 11 6 25 14 NE 1016,7 25 0,0
18.07.2018 11:00:00 24,8 12,7 32,6 20,8 17,7 8 4 20 11 ENE 1017,1 27 0,0
18.07.2018 10:00:00 23,2 13,4 30,0 20,9 17,7 6 3 15 8 ENE 1017,7 29 0,0
18.07.2018 09:00:00 21,5 13,4 24,3 20,9 17,7 6 3 9 5 NNE 1017,7 19 0,0
18.07.2018 08:00:00 18,8 12,8 16,2 21,0 17,7 4 2 13 7 NW 1018,0 34 0,0
18.07.2018 07:00:00 16,5 12,8 10,0 21,0 17,7 3 1 8 4 NNW 1018,3 30 0,0
18.07.2018 06:00:00 15,3 12,1 10,1 21,1 17,7 8 4 11 6 N 1018,2 29 0,0
18.07.2018 05:00:00 15,7 12,4 10,2 21,1 17,7 0 0 5 3 N 1018,3 30 0,0
18.07.2018 04:00:00 16,9 12,8 10,8 21,1 17,7 2 1 6 3 WNW 1018,0 31 0,0
18.07.2018 03:00:00 17,9 13,0 14,2 21,1 17,7 4 2 8 5 WNW 1018,0 37 0,0
18.07.2018 02:00:00 18,7 13,1 13,6 21,1 17,7 6 3 9 5 NW 1017,9 38 0,0
18.07.2018 01:00:00 19,0 13,2 13,8 21,1 17,7 4 2 13 7 ENE 1017,8 37 0,0
18.07.2018 00:00:00 19,7 13,4 13,9 21,1 17,7 8 4 13 7 NNW 1017,6 37 0,0
17.07.2018 23:00:00 20,4 13,1 15,0 21,0 17,7 9 5 14 8 NNW 1017,1 35 0,0
17.07.2018 22:00:00 22,3 13,1 17,3 21,0 17,7 6 4 19 10 NNW 1016,4 39 0,0
17.07.2018 21:00:00 24,6 13,2 23,8 20,9 17,7 11 6 22 12 NW 1015,6 40 0,0
17.07.2018 20:00:00 25,7 12,2 25,5 20,8 17,7 13 7 30 16 WNW 1014,9 35 0,0
17.07.2018 19:00:00 27,5 11,1 27,5 20,7 17,7 18 10 29 16 W 1014,5 41 0,0
17.07.2018 18:00:00 27,5 11,1 31,1 20,6 17,7 17 9 31 17 WNW 1014,5 46 0,0
17.07.2018 17:00:00 28,6 11,2 35,3 20,5 17,7 16 9 34 18 WNW 1014,4 19 0,0
17.07.2018 16:00:00 28,4 11,0 31,3 20,5 17,7 20 11 39 21 W 1014,6 23 0,0
17.07.2018 15:00:00 27,9 11,9 30,9 20,4 17,6 19 10 35 19 WNW 1014,8 22 0,0
17.07.2018 14:00:00 27,8 11,4 30,1 20,4 17,6 13 7 27 15 W 1014,9 36 0,0
17.07.2018 13:00:00 26,7 13,4 29,6 20,4 17,6 10 6 25 14 W 1015,3 26 0,0
17.07.2018 12:00:00 26,7 12,7 36,0 20,4 17,6 11 6 21 12 WNW 1015,3 42 0,0
17.07.2018 11:00:00 25,4 12,3 27,5 20,5 17,7 9 5 22 12 NW 1015,3 31 0,0
17.07.2018 10:00:00 23,3 12,3 26,1 20,5 17,6 9 5 16 9 WNW 1015,3 32 0,0
17.07.2018 09:00:00 21,6 12,7 20,8 20,5 17,6 5 3 12 6 W 1015,2 28 0,0
17.07.2018 08:00:00 19,1 12,4 15,1 20,6 17,7 9 5 15 8 WSW 1015,2 30 0,0
17.07.2018 07:00:00 17,0 12,1 12,2 20,7 17,6 5 3 9 5 WSW 1015,1 30 0,0
17.07.2018 06:00:00 15,9 11,3 11,1 20,7 17,7 8 4 12 6 WSW 1014,9 29 0,0
17.07.2018 05:00:00 16,3 11,4 13,5 20,7 17,7 4 2 14 7 WSW 1014,5 29 0,0
17.07.2018 04:00:00 16,4 12,0 11,7 20,8 17,6 7 4 25 13 SSW 1014,2 29 0,0
17.07.2018 03:00:00 18,6 11,7 11,8 20,8 17,7 6 4 11 6 S 1013,6 37 0,0
17.07.2018 02:00:00 18,3 11,8 11,7 20,8 17,6 8 4 10 6 S 1013,9 41 0,0
17.07.2018 01:00:00 18,2 12,0 12,4 20,8 17,6 6 3 14 8 S 1014,0 39 0,0
17.07.2018 00:00:00 20,8 11,1 13,5 20,7 17,6 5 3 10 5 SSW 1013,3 37 0,0
16.07.2018 23:00:00 22,0 11,1 14,0 20,7 17,6 8 4 9 5 SE 1012,8 47 0,0
16.07.2018 22:00:00 22,7 11,1 16,0 20,6 17,6 6 3 11 6 E 1012,1 42 0,0
16.07.2018 21:00:00 25,7 10,7 23,7 20,6 17,6 5 3 14 7 NNE 1011,1 43 0,0
16.07.2018 20:00:00 26,9 9,7 28,0 20,5 17,6 8 5 24 13 N 1010,4 49 0,0
16.07.2018 19:00:00 28,6 9,3 33,5 20,5 17,6 11 6 25 13 NNE 1009,8 46 0,0
16.07.2018 18:00:00 28,2 9,9 28,8 20,4 17,6 9 5 24 13 NNW 1009,9 41 0,0
16.07.2018 17:00:00 27,5 10,7 29,3 20,3 17,6 13 7 23 13 NE 1010,1 32 0,0
16.07.2018 16:00:00 29,1 10,7 28,1 20,3 17,6 13 7 21 11 NNE 1010,3 31 0,0
16.07.2018 15:00:00 26,5 11,0 28,0 20,2 17,6 11 6 29 15 NE 1011,0 42 0,0
16.07.2018 14:00:00 27,8 11,8 29,2 20,3 17,6 13 7 28 15 NE 1011,3 44 0,0
16.07.2018 13:00:00 27,7 12,1 37,3 20,2 17,6 4 2 28 15 WNW 1011,6 19 0,0
16.07.2018 12:00:00 26,7 13,4 35,5 20,3 17,5 3 2 17 9 WNW 1012,1 52 0,0
16.07.2018 11:00:00 24,9 12,5 33,2 20,3 17,5 7 4 16 9 ENE 1012,6 24 0,0
16.07.2018 10:00:00 23,3 12,9 27,7 20,4 17,5 3 2 8 4 NNE 1013,0 35 0,0
16.07.2018 09:00:00 20,8 13,7 22,9 20,4 17,5 3 2 10 6 SSW 1013,6 34 0,0
16.07.2018 08:00:00 17,1 13,4 15,8 20,6 17,6 4 2 9 5 SE 1014,2 24 0,0
16.07.2018 07:00:00 15,0 12,7 11,6 20,6 17,6 0 0 13 7 N 1014,6 27 0,0
16.07.2018 06:00:00 13,9 11,9 10,7 20,7 17,6 9 5 12 6 SE 1014,7 24 0,0
16.07.2018 05:00:00 14,3 11,8 11,2 20,7 17,5 10 6 13 7 SE 1014,5 27 0,0
16.07.2018 04:00:00 15,2 12,0 10,1 20,7 17,6 9 5 13 7 E 1014,9 34 0,0
16.07.2018 03:00:00 16,0 12,0 9,4 20,7 17,5 7 4 11 6 S 1014,7 34 0,0
16.07.2018 02:00:00 16,0 11,8 9,9 20,8 17,6 5 3 7 4 SSE 1014,9 37 0,0
16.07.2018 01:00:00 16,3 11,2 10,5 20,8 17,5 3 2 14 8 N 1015,1 38 0,0
16.07.2018 00:00:00 17,8 12,0 15,8 20,7 17,5 5 3 16 9 SSE 1014,8 42 0,0
15.07.2018 23:00:00 18,7 11,5 16,7 20,7 17,5 5 3 16 9 NNE 1015,2 46 0,0
15.07.2018 22:00:00 19,0 11,8 17,4 20,7 17,5 12 7 29 15 SSE 1014,6 12 0,0
15.07.2018 21:00:00 19,9 11,9 19,1 20,7 17,5 14 8 33 18 ENE 1014,7 42 0,0
15.07.2018 20:00:00 21,8 13,4 21,0 20,6 17,5 21 12 33 18 ENE 1014,0 34 0,0
15.07.2018 19:00:00 22,7 14,5 22,5 20,6 17,5 5 3 19 10 S 1013,2 47 0,0
15.07.2018 18:00:00 22,6 14,2 18,7 20,5 17,5 11 6 25 14 W 1013,3 51 0,2
15.07.2018 17:00:00 20,7 15,0 17,7 20,5 17,5 12 7 28 15 S 1014,1 11 0,4
15.07.2018 16:00:00 25,8 14,9 25,8 20,4 17,5 7 4 14 8 NNE 1013,1 34 0,0
15.07.2018 15:00:00 26,4 14,2 27,9 20,4 17,5 8 5 27 14 N 1013,1 33 0,0
15.07.2018 14:00:00 26,6 14,4 31,3 20,4 17,5 14 8 26 14 N 1013,6 33 0,0
15.07.2018 13:00:00 27,9 14,9 37,7 20,4 17,5 9 5 27 14 NNW 1013,9 37 0,0
15.07.2018 12:00:00 26,5 15,2 30,5 20,4 17,5 6 3 15 8 N 1014,6 15 0,0
15.07.2018 11:00:00 23,5 15,3 26,0 20,4 17,5 6 3 20 11 ESE 1015,2 19 0,0
15.07.2018 10:00:00 23,0 14,6 27,8 20,4 17,5 13 7 21 11 E 1015,3 24 0,0
15.07.2018 09:00:00 22,4 14,8 20,7 20,5 17,5 8 5 13 7 NNE 1015,1 28 0,0
15.07.2018 08:00:00 17,9 14,4 16,3 20,5 17,5 4 2 17 9 NW 1015,7 23 0,0
15.07.2018 07:00:00 18,2 13,5 14,5 20,5 17,5 13 7 22 12 SE 1015,4 28 0,0
15.07.2018 06:00:00 17,9 13,0 14,2 20,5 17,5 5 3 9 5 WSW 1015,8 25 0,0
15.07.2018 05:00:00 18,7 12,9 14,6 20,5 17,5 5 3 9 5 NNE 1015,8 35 0,0
15.07.2018 04:00:00 19,2 13,1 13,6 20,5 17,5 0 0 12 6 N 1015,8 26 0,0
15.07.2018 03:00:00 19,3 13,2 13,4 20,5 17,5 5 3 10 6 NE 1016,0 32 0,0
15.07.2018 02:00:00 19,7 14,1 14,1 20,5 17,5 6 3 10 5 NE 1016,0 32 0,0
15.07.2018 01:00:00 20,1 14,5 16,5 20,5 17,5 6 3 23 12 E 1016,5 18 0,0
15.07.2018 00:00:00 22,5 13,6 17,1 20,4 17,5 18 10 29 16 SW 1016,4 35 0,0
14.07.2018 23:00:00 22,1 12,4 17,1 20,4 17,5 6 3 10 6 ENE 1015,6 41 0,0
14.07.2018 22:00:00 23,9 12,5 21,8 20,3 17,5 8 4 11 6 NE 1015,4 40 0,0
14.07.2018 21:00:00 25,5 12,0 22,3 20,2 17,5 7 4 11 6 NNE 1014,8 42 0,0
14.07.2018 20:00:00 27,1 11,2 26,0 20,1 17,5 5 3 16 9 NE 1014,6 45 0,0
14.07.2018 19:00:00 28,2 9,9 29,8 20,1 17,4 5 3 13 7 S 1014,6 41 0,0
14.07.2018 18:00:00 29,2 10,3 31,9 20,0 17,4 5 3 18 10 S 1014,9 35 0,0
14.07.2018 17:00:00 28,6 11,6 30,3 20,0 17,5 8 4 21 11 ESE 1015,2 41 0,0
14.07.2018 16:00:00 28,9 11,5 31,9 19,9 17,5 11 6 22 12 E 1015,6 48 0,0
14.07.2018 15:00:00 27,7 11,3 30,4 19,8 17,4 9 5 27 15 E 1016,1 40 0,0
14.07.2018 14:00:00 26,8 12,4 30,3 19,8 17,4 12 6 21 12 N 1016,7 36 0,0
14.07.2018 13:00:00 27,7 11,3 33,5 19,8 17,5 8 5 23 13 ENE 1016,9 42 0,0
14.07.2018 12:00:00 27,4 13,0 37,4 19,8 17,4 8 4 18 10 ENE 1017,2 29 0,0
14.07.2018 11:00:00 25,8 12,6 31,4 19,9 17,5 6 3 13 7 E 1017,7 41 0,0
14.07.2018 10:00:00 24,1 13,0 29,8 19,9 17,4 5 3 12 7 NE 1018,1 20 0,0
14.07.2018 09:00:00 22,4 13,7 25,3 19,9 17,5 4 2 8 5 NNE 1018,5 36 0,0
14.07.2018 08:00:00 19,1 13,5 15,5 20,0 17,5 0 0 5 3 N 1018,6 28 0,0
14.07.2018 07:00:00 15,8 12,7 8,9 20,0 17,5 0 0 4 2 N 1018,9 23 0,0
14.07.2018 06:00:00 14,4 12,1 8,5 20,1 17,5 4 2 9 5 NNE 1019,1 23 0,0
14.07.2018 05:00:00 14,6 11,9 9,0 20,1 17,5 0 0 4 2 N 1019,2 24 0,0
14.07.2018 04:00:00 15,6 12,3 9,5 20,1 17,5 0 0 9 5 N 1018,9 25 0,0
14.07.2018 03:00:00 16,8 12,7 10,6 20,1 17,5 3 2 7 4 NW 1019,1 26 0,0
14.07.2018 02:00:00 17,0 12,7 10,9 20,0 17,5 3 2 11 6 NNW 1019,1 31 0,0
14.07.2018 01:00:00 17,7 12,8 11,4 20,0 17,5 6 4 10 5 N 1019,1 35 0,0
14.07.2018 00:00:00 19,7 13,2 14,7 20,0 17,5 7 4 11 6 N 1018,9 36 0,0
13.07.2018 23:00:00 20,6 13,1 14,4 19,9 17,5 5 3 10 5 NNE 1018,6 38 0,0
13.07.2018 22:00:00 21,5 12,6 17,8 19,8 17,5 6 4 19 11 NNW 1018,1 34 0,0
13.07.2018 21:00:00 24,2 12,8 23,3 19,8 17,5 13 7 26 14 NNE 1017,0 48 0,0
13.07.2018 20:00:00 26,3 10,4 26,3 19,7 17,5 7 4 18 10 ENE 1016,4 58 0,0
13.07.2018 19:00:00 28,1 10,3 31,2 19,6 17,5 13 7 21 12 ESE 1016,1 52 0,0
13.07.2018 18:00:00 27,1 9,9 31,7 19,5 17,5 9 5 20 11 NNE 1016,6 58 0,0
13.07.2018 17:00:00 28,2 10,8 28,0 19,5 17,5 9 5 24 13 ENE 1016,7 54 0,0
13.07.2018 16:00:00 26,7 9,5 29,6 19,4 17,5 10 5 27 15 NNE 1017,3 53 0,0
13.07.2018 15:00:00 26,7 10,8 29,2 19,3 17,5 16 9 27 15 NE 1017,5 19 0,0
13.07.2018 14:00:00 27,4 11,8 29,5 19,3 17,5 14 7 28 15 NNE 1017,7 29 0,0
13.07.2018 13:00:00 25,8 10,8 32,3 19,3 17,5 8 5 27 15 E 1018,5 13 0,0

tt = temperature
td = dewpoint
tt 5cm = temperature 5cm
tt -20cm = temperature -20cm
tt -100cm = temperature -100cm
ff = wind speed
fx = gusts
dd = wind direction
ppp = reduced air pressure
vv = visibility
rr = precipitation

Next stations